Regional Weather Roundup
Issued by NWS Bismarck, ND

Home | Current Version | Previous Version | Text Only | Print | Product List | Glossary On
Versions: 1 2 3 4 5 6 7 8 9 10 11 12 13 14 15 16 17 18 19 20 21 22 23 24 25 26 27 28 29 30 31 32 33 34 35 36 37 38 39 40 41 42 43 44 45 46 47 48 49 50
000
ASUS43 KBIS 280310
RWRBIS

NWR BROADCAST TEXT
NATIONAL WEATHER SERVICE BISMARCK ND
1000 PM CDT MON JUL 27 2015

NOTE: "FAIR" INDICATES FEW OR NO CLOUDS BELOW 12,000 FEET WITH NO
SIGNIFICANT WEATHER AND/OR OBSTRUCTIONS TO VISIBILITY.


CITY           SKY/WX    TMP DP  RH WIND       PRES   REMARKS
WILLISTON      LGT RAIN  67  63  87 NW9       29.57R
MINOT          CLOUDY    81  69  67 SE14      29.59F
MINOT AFB      CLOUDY    79  73  81 SE15      29.57F
BISMARCK       CLOUDY    83  71  67 S17       29.69R
DICKINSON      CLOUDY    75  54  47 S25G38    29.61R
GARRISON         N/A     79  71  76 SE12      29.60F
HETTINGER ARPT CLOUDY    68  58  70 SE20G28   29.69R
JAMESTOWN      PTCLDY    79  74  84 SE18G25   29.72R
BEACH          FOG       64  64 100 SW30G49   29.71R THUNDER VSB 3/4
CROSBY         FAIR      75  75 100 E13       29.53S
HARVEY         FAIR      79  73  83 SE9       29.68R
HAZEN          FAIR      82  68  61 S21G35    29.62R
LINTON         FAIR      81  75  83 SE15      29.72R
MANDAN         FAIR      82  72  69 SE13G20   29.69R
OAKES            N/A     75  73  94 SE9       29.76R
STANLEY        FAIR      79  70  73 S14       29.58F
$$

CITY           SKY/WX    TMP DP  RH WIND       PRES   REMARKS
GRAND FORKS    PTCLDY    79  72  79 SE10      29.74R
GRAND FORKS AF CLEAR     78  73  85 S8        29.75R
DEVILS LAKE    PTCLDY    79  68  69 SE15      29.70R
FARGO          CLEAR     81  71  71 SE13G18   29.76R
CAVALIER       FAIR      75  73  94 SE6       29.75S
GRAFTON        FAIR      75  73  94 E8        29.75S
GWINNER          N/A     81  77  89 SE13      29.77R
LANGDON        FAIR      75  72  88 E12       29.75F
ROLLA          CLOUDY    75  73  94 SE13      29.73S
WALHALLA       FAIR      75  75 100 MISG      29.74F
$$

CITY           SKY/WX    TMP DP  RH WIND       PRES   REMARKS
ABERDEEN       CLEAR     80  71  74 SE10      29.73R
MOBRIDGE       CLOUDY    82  76  81 SE13      29.69R
BUFFALO          N/A     71  57  61 SE25G41   29.58F
RAPID CITY     CLOUDY    66  63  90 NW13      29.70R
GLASGOW        CLOUDY    59  54  83 NW31G46   29.66R THUNDER
SIDNEY         CLOUDY   N/A N/A N/A SE8       29.58R
WOLF POINT     CLOUDY    67  61  81 W28G33    29.59R
MILES CITY     LGT RAIN  59  59 100 W12       29.78R
BAKER          CLOUDY    60  55  83 W33G46    29.71R THUNDER
$$

CITY           SKY/WX    TMP DP  RH WIND       PRES   REMARKS
BILLINGS       MOCLDY    54  47  77 NW10      29.93R
GREAT FALLS    LGT RAIN  50  48  93 SW13      29.97F
REGINA         TSTM      63  59  88 NE20      29.63F
$$




USA.gov is the U.S. government's official web portal to all federal, state and local government web resources and services.